Location: Poughquag
(41.6090°N, 73.6820°W)
Time: 10:46:28
(UTC-04:00)

Vanguard 3 - All Passes

Search period start: 25 June 2024 00:00
Search period end: 05 July 2024 00:00
Orbit: 509 x 3231 km, 33.3° (Epoch: 24 June)

Date Brightness Start Highest point End Pass type
(mag) Time Alt. Az. Time Alt. Az. Time Alt. Az.
25 Jun - 05:52:06 10° S 06:01:06 17° SSE 06:08:14 10° ESE daylight
25 Jun - 08:02:04 10° SW 08:14:20 35° SSE 08:22:01 10° E daylight
25 Jun - 10:16:27 10° WSW 10:26:40 46° S 10:32:36 10° ESE daylight
25 Jun - 12:31:22 10° W 12:37:45 32° SSW 12:41:58 10° SE daylight
26 Jun - 04:40:45 10° SE 04:41:35 10° SE 04:42:25 10° SE visible
26 Jun - 06:42:31 10° SSW 06:55:08 28° SSE 07:03:49 10° ESE daylight
26 Jun - 08:55:44 10° SW 09:08:09 44° S 09:15:25 10° E daylight
26 Jun - 11:10:59 10° WSW 11:20:02 44° S 11:25:24 10° ESE daylight
26 Jun - 13:26:11 10° WSW 13:30:28 19° SSW 13:33:43 10° SSE daylight
27 Jun - 05:24:21 10° S 05:35:36 21° SSE 05:44:22 10° ESE daylight
27 Jun - 07:35:11 10° SW 07:49:07 39° SSE 07:57:49 10° E daylight
27 Jun - 09:50:08 10° WSW 10:01:48 50° S 10:08:27 10° ESE daylight
27 Jun - 12:05:40 10° W 12:13:06 34° SSW 12:17:49 10° SE daylight
28 Jun - 04:09:25 10° SSE 04:15:56 13° SE 04:21:49 10° ESE visible
28 Jun - 06:15:21 10° SSW 06:29:39 32° SSE 06:39:32 10° E daylight
28 Jun - 08:29:04 10° WSW 08:43:01 49° S 08:51:11 10° E daylight
28 Jun - 10:44:53 10° W 10:55:14 47° S 11:01:13 10° ESE daylight
28 Jun - 13:00:41 10° WSW 13:05:46 20° SW 13:09:29 10° SSE daylight
29 Jun - 04:56:52 10° SSW 05:09:54 24° SSE 05:20:07 10° ESE daylight
29 Jun - 07:08:16 10° SW 07:23:42 43° SSE 07:33:26 10° E daylight
29 Jun - 09:23:40 10° WSW 09:36:46 53° S 09:44:13 10° ESE daylight
29 Jun - 11:39:44 10° W 11:48:20 36° SSW 11:53:36 10° SE daylight
30 Jun - 03:41:00 10° S 03:50:08 15° SE 03:58:14 10° ESE visible
30 Jun - 05:48:15 10° SSW 06:03:58 36° SSE 06:15:02 10° E daylight
30 Jun - 08:02:19 10° WSW 08:17:42 53° S 08:26:48 10° E daylight
30 Jun - 10:18:34 10° W 10:30:17 49° SSW 10:36:58 10° ESE daylight
30 Jun - 12:34:56 10° W 12:40:58 22° SW 12:45:12 10° SSE daylight
01 Jul - 04:29:36 10° SSW 04:44:00 27° SSE 04:55:32 10° E visible
01 Jul - 06:41:21 10° SW 06:58:05 47° SSE 07:08:55 10° E daylight
01 Jul - 08:57:03 10° WSW 09:11:33 56° S 09:19:52 10° ESE daylight
01 Jul - 11:13:36 10° W 11:23:25 38° SSW 11:29:19 10° SE daylight
02 Jul - 03:13:17 10° S 03:24:07 18° SE 03:33:54 10° ESE visible
02 Jul - 05:21:16 10° SW 05:38:03 39° SSE 05:50:19 10° E daylight
02 Jul - 07:35:31 10° WSW 07:52:10 56° S 08:02:18 10° E daylight
02 Jul - 09:52:04 10° W 10:05:10 52° SSW 10:12:37 10° ESE daylight
02 Jul - 12:08:58 10° W 12:16:03 23° SW 12:20:52 10° SSE daylight
03 Jul - 04:02:34 10° SSW 04:17:54 30° SSE 04:30:41 10° E visible
03 Jul - 06:14:29 10° SW 06:32:14 51° SSE 06:44:12 10° E daylight
03 Jul - 08:30:19 10° WSW 08:46:09 59° S 08:55:23 10° ESE daylight
03 Jul - 10:47:14 10° W 10:58:20 39° SSW 11:04:57 10° SE daylight
03 Jul - 13:07:15 10° SW 13:08:10 10° SW 13:09:02 10° SW daylight
04 Jul - 02:45:59 10° S 02:57:57 20° SE 03:09:06 10° E visible
04 Jul - 04:54:25 10° SW 05:11:56 42° SSE 05:25:24 10° E visible
04 Jul - 07:08:42 10° WSW 07:26:27 59° S 07:37:38 10° E daylight
04 Jul - 09:25:26 10° W 09:39:51 53° SSW 09:48:10 10° ESE daylight
04 Jul - 11:42:47 10° W 11:50:57 24° SW 11:56:26 10° SSE daylight
